Location: Dehesa de la Cepeda
(40.6574°N, 4.3013°W)
Time: 04:32:16
(UTC+00:00)

Courier 1B Rocket - Pass Details

Date: 29 July 2021
Orbit: 920 x 1202 km, 28.3° (Epoch: 19 September)

Event Time Altitude Azimuth Distance (km) Brightness Sun altitude
Exits shadow 02:31:24 15° 146° (SE) 2,292 6.7 -23.6°
Drops below altitude 10° 02:33:40 10° 125° (SE) 2,630 7.2 -23.4°
Sets 02:37:16 0° 105° (ESE) 3,555 8.2 -23.0°
